Weather History for Monett, MO

Change the Weather History Date:

Tuesday, September 2, 2014

  Actual Average (KJLN) Record (KJLN)
Temperature  
Mean Temperature 71 °F 76 °F  
Max Temperature 78 °F 88 °F 105 °F (2000)
Min Temperature 64 °F 65 °F 48 °F (1974)
Degree Days  
Heating Degree Days 0 0  
Month to date heating degree days 0  
Since 1 July heating degree days 1  
Cooling Degree Days 6 11  
Month to date cooling degree days 23  
Year to date cooling degree days 1450  
Growing Degree Days 21 (Base 50)    
Moisture  
Dew Point 65 °F    
Average Humidity 89    
Maximum Humidity 100    
Minimum Humidity 65    
Precipitation  
Precipitation 1.53 in 0.16 in 1.50 in (1993)
Month to date precipitation 0.32  
Year to date precipitation 31.29  
Sea Level Pressure  
Sea Level Pressure 30.00 in    
Wind  
Wind Speed 8 mph (South)    
Max Wind Speed 17 mph    
Max Gust Speed 32 mph    
Visibility 9 miles    
Events Rain , Thunderstorm    
T = Trace of Precipitation, MM = Missing Value Source: NWS Daily Summary

Daily Weather History Graph

Daily Weather History Graph

Search for Another Location

Airport:

Trip Planner

Search our weather history database for the weather conditions in past years. The results will help you decide how hot, cold, wet, or windy it might be!

Date:

Astronomy

Sep. 02, 2014 Rise Set
Actual Time 6:47 AM CDT 7:42 PM CDT
Civil Twilight 6:21 AM CDT 8:09 PM CDT
Nautical Twilight 5:49 AM CDT 8:40 PM CDT
Astronomical Twilight 5:17 AM CDT 9:13 PM CDT
Moon 2:22 PM CDT (9/2) No Moon Set
Length of Visible Light 13h 48m
Length of Day
12h 55m
First Quarter, 53% of the Moon is Illuminated
Sep 2
First Quarter
Sep 8
Full
Sep 15
Last Quarter
Sep 24
New
Oct 1
First Quarter

Hourly Weather History & Observations

Time (CDT) Temp. Dew Point Humidity Pressure Visibility Wind Dir Wind Speed Gust Speed Precip Events Conditions
12:15 AM 68.0 °F 64.4 °F 88% 29.94 in 10.0 mi SSE 12.7 mph - 0.03 in Rain , Thunderstorm Thunderstorms and Rain
12:35 AM 68.0 °F 64.4 °F 88% 29.89 in 10.0 mi ESE 8.1 mph - 0.04 in Rain , Thunderstorm Light Thunderstorms and Rain
12:55 AM 68.0 °F 64.4 °F 88% 29.95 in 10.0 mi NW 11.5 mph - 0.04 in Rain , Thunderstorm Light Thunderstorms and Rain
1:15 AM 68.0 °F 64.4 °F 88% 29.95 in 10.0 mi NNE 5.8 mph - 0.01 in   Scattered Clouds
1:35 AM 68.0 °F 64.4 °F 88% 29.94 in 10.0 mi ENE 4.6 mph - 0.01 in Thunderstorm Clear
1:55 AM 66.2 °F 64.4 °F 94% 30.00 in 4.0 mi North 13.8 mph 32.2 mph 0.10 in Rain , Thunderstorm Thunderstorms and Rain
2:15 AM 64.4 °F 62.6 °F 94% 29.96 in 7.0 mi ENE 9.2 mph - 0.04 in Rain , Thunderstorm Thunderstorms and Rain
2:35 AM 64.4 °F 64.4 °F 100% 29.96 in 10.0 mi NE 4.6 mph - 0.04 in Rain , Thunderstorm Light Thunderstorms and Rain
2:55 AM 64.4 °F 64.4 °F 100% 30.02 in 1.8 mi NW 9.2 mph - 0.47 in Rain , Thunderstorm Heavy Thunderstorms and Rain
3:15 AM 66.2 °F 64.4 °F 94% 30.00 in 3.0 mi NNE 3.5 mph 11.5 mph 0.38 in Rain , Thunderstorm Heavy Thunderstorms and Rain
3:35 AM 64.4 °F 64.4 °F 100% 29.95 in 7.0 mi ESE 6.9 mph - 0.47 in Rain , Thunderstorm Thunderstorms and Rain
3:55 AM 64.4 °F 64.4 °F 100% 29.96 in 10.0 mi SSE 8.1 mph - 0.48 in Rain , Thunderstorm Light Thunderstorms and Rain
4:15 AM 64.4 °F 64.4 °F 100% 29.97 in 10.0 mi South 10.4 mph - 0.02 in Rain , Thunderstorm Heavy Thunderstorms and Rain
4:35 AM 64.4 °F 64.4 °F 100% 29.97 in 10.0 mi WSW 5.8 mph - 0.04 in Rain , Thunderstorm Light Thunderstorms and Rain
4:55 AM 64.4 °F 64.4 °F 100% 29.96 in 10.0 mi SE 6.9 mph - 0.07 in Rain , Thunderstorm Light Thunderstorms and Rain
5:15 AM 64.4 °F 64.4 °F 100% 29.98 in 10.0 mi SSE 4.6 mph - N/A Rain , Thunderstorm Thunderstorms and Rain
5:35 AM 64.4 °F 64.4 °F 100% 29.96 in 7.0 mi SW 8.1 mph - 0.05 in Rain , Thunderstorm Light Thunderstorms and Rain
5:55 AM 66.2 °F 64.4 °F 94% 29.95 in 10.0 mi South 9.2 mph - 0.06 in Rain , Thunderstorm Light Thunderstorms and Rain
6:15 AM 66.2 °F 64.4 °F 94% 29.98 in 10.0 mi South 13.8 mph - N/A Rain , Thunderstorm Light Thunderstorms and Rain
6:35 AM 64.4 °F 62.6 °F 94% 30.00 in 10.0 mi South 6.9 mph - 0.01 in Rain , Thunderstorm Thunderstorms and Rain
6:55 AM 64.4 °F 64.4 °F 100% 30.02 in 7.0 mi NNE 4.6 mph - 0.05 in Rain , Thunderstorm Thunderstorms and Rain
7:15 AM 64.4 °F 64.4 °F 100% 29.98 in 7.0 mi NE 6.9 mph - 0.04 in Rain Rain
7:35 AM 64.4 °F 64.4 °F 100% 30.02 in 7.0 mi SW 5.8 mph - 0.09 in Rain Rain
7:55 AM 64.4 °F 64.4 °F 100% 30.05 in 10.0 mi SSW 5.8 mph - 0.11 in Rain Rain
8:15 AM 64.4 °F 64.4 °F 100% 30.06 in 7.0 mi SE 4.6 mph - 0.03 in Rain Light Rain
8:35 AM 64.4 °F 64.4 °F 100% 30.03 in 10.0 mi SE 10.4 mph - 0.04 in Rain Rain
8:55 AM 64.4 °F 62.6 °F 94% 30.02 in 10.0 mi SSE 13.8 mph 19.6 mph 0.07 in Rain Rain
9:15 AM 64.4 °F 64.4 °F 100% 29.98 in 10.0 mi SSE 12.7 mph 17.3 mph 0.03 in Rain Rain
9:35 AM 66.2 °F 64.4 °F 94% 30.00 in 10.0 mi South 11.5 mph - 0.04 in Rain Light Rain
9:55 AM 66.2 °F 64.4 °F 94% 30.02 in 10.0 mi West 9.2 mph - 0.04 in   Scattered Clouds
10:15 AM 64.4 °F 64.4 °F 100% 30.05 in 10.0 mi WSW 9.2 mph - N/A Rain Light Rain
10:35 AM 64.4 °F 64.4 °F 100% 30.03 in 10.0 mi South 13.8 mph - 0.01 in Rain Rain
10:55 AM 64.4 °F 62.6 °F 94% 29.97 in 10.0 mi SSE 17.3 mph 26.5 mph 0.04 in Rain Light Rain
11:15 AM 64.4 °F 64.4 °F 100% 30.06 in 10.0 mi NW 15.0 mph 19.6 mph N/A   Mostly Cloudy
11:35 AM 64.4 °F 64.4 °F 100% 30.07 in 10.0 mi WNW 3.5 mph - N/A   Scattered Clouds
11:55 AM 64.4 °F 64.4 °F 100% 30.07 in 10.0 mi WSW 4.6 mph - N/A   Clear
12:15 PM 66.2 °F 64.4 °F 94% 30.06 in 10.0 mi SW 6.9 mph - N/A   Clear
12:35 PM 66.2 °F 64.4 °F 94% 30.05 in 10.0 mi SW 6.9 mph - N/A   Clear
12:55 PM 68.0 °F 64.4 °F 88% 30.05 in 10.0 mi WSW 5.8 mph - N/A   Clear
1:15 PM 68.0 °F 64.4 °F 88% 30.06 in 10.0 mi WSW 5.8 mph - N/A   Clear
1:35 PM 68.0 °F 64.4 °F 88% 30.05 in 10.0 mi SW 6.9 mph - N/A   Clear
1:55 PM 69.8 °F 64.4 °F 83% 30.05 in 10.0 mi SW 8.1 mph - N/A   Clear
2:15 PM 71.6 °F 64.4 °F 78% 30.02 in 10.0 mi SW 4.6 mph - N/A   Clear
2:35 PM 73.4 °F 64.4 °F 73% 30.01 in 10.0 mi SW 5.8 mph - N/A   Clear
2:55 PM 73.4 °F 66.2 °F 78% 30.00 in 10.0 mi West 8.1 mph - N/A   Clear
3:15 PM 75.2 °F 64.4 °F 69% 29.99 in 10.0 mi Calm Calm - N/A   Clear
3:35 PM 77.0 °F 66.2 °F 69% 29.98 in 10.0 mi Calm Calm - N/A   Clear
3:55 PM 78.8 °F 66.2 °F 65% 29.97 in 10.0 mi West 4.6 mph - N/A   Clear
4:15 PM 78.8 °F 66.2 °F 65% 29.97 in 10.0 mi NW 6.9 mph - N/A   Clear
4:35 PM 78.8 °F 66.2 °F 65% 29.96 in 10.0 mi NW 6.9 mph - N/A   Clear
4:55 PM 78.8 °F 66.2 °F 65% 29.96 in 10.0 mi NNW 5.8 mph - N/A   Clear
5:15 PM 78.8 °F 66.2 °F 65% 29.96 in 10.0 mi NNW 6.9 mph - N/A   Clear
5:55 PM 78.8 °F 66.2 °F 65% 29.96 in 10.0 mi NW 6.9 mph - N/A   Clear
6:15 PM 77.0 °F 66.2 °F 69% 29.97 in 10.0 mi NNW 3.5 mph - N/A   Clear
6:35 PM 77.0 °F 66.2 °F 69% 29.97 in 10.0 mi Calm Calm - N/A   Clear
6:55 PM 77.0 °F 68.0 °F 74% 29.97 in 10.0 mi Calm Calm - N/A   Clear
7:15 PM 77.0 °F 66.2 °F 69% 29.98 in 10.0 mi Calm Calm - N/A   Clear
7:35 PM 73.4 °F 68.0 °F 83% 29.99 in 10.0 mi Calm Calm - N/A   Clear
7:55 PM 71.6 °F 68.0 °F 88% 30.00 in 10.0 mi ESE 3.5 mph - N/A   Clear
8:15 PM 71.6 °F 68.0 °F 88% 30.00 in 10.0 mi ESE 4.6 mph - N/A   Clear
8:35 PM 71.6 °F 66.2 °F 83% 30.01 in 10.0 mi ESE 5.8 mph - N/A   Clear
8:55 PM 69.8 °F 66.2 °F 88% 30.02 in 10.0 mi ESE 5.8 mph - N/A   Clear
9:15 PM 69.8 °F 66.2 °F 88% 30.02 in 10.0 mi ESE 4.6 mph - N/A   Clear
9:35 PM 69.8 °F 66.2 °F 88% 30.02 in 10.0 mi SE 3.5 mph - N/A   Clear
9:55 PM 69.8 °F 66.2 °F 88% 30.03 in 10.0 mi ESE 4.6 mph - N/A   Clear
10:15 PM 69.8 °F 66.2 °F 88% 30.02 in 10.0 mi ESE 5.8 mph - N/A   Scattered Clouds
10:35 PM 69.8 °F 68.0 °F 94% 30.02 in 10.0 mi ESE 5.8 mph - N/A   Mostly Cloudy
10:55 PM 69.8 °F 68.0 °F 94% 30.02 in 10.0 mi ESE 5.8 mph - N/A   Overcast
11:35 PM 69.8 °F 68.0 °F 94% 30.03 in 10.0 mi ESE 5.8 mph - N/A   Overcast
11:55 PM 69.8 °F 68.0 °F 94% 30.03 in 10.0 mi SE 5.8 mph - N/A   Overcast